Wind_Speed
23 23 23 23 23 23 23 22 23 23 23 23 23 23 22 23 22 23 24 23 23 23 23 21 21 21 20 20 20 20 20 19 19 19 19 19 19 19 19 19 19 19 19
24 24 24 25 24 24 23 23 23 23 23 23 23 23 23 23 23 23 23 24 24 24 24 24 23 22 22 22 21 21 21 21 20 20 21 21 20 20 21 21 21 21 21
24 24 24 25 25 24 24 24 24 24 24 24 24 24 24 24 24 24 24 24 24 25 25 25 24 25 25 24 23 22 22 22 22 21 21 21 22 22 22 22 22 23 23
26 26 25 25 25 25 25 25 26 26 26 26 26 25 25 26 26 25 25 26 26 26 26 26 26 26 26 25 25 24 24 24 23 23 23 23 23 23 23 24 24 24 24
26 26 25 25 25 25 25 26 27 27 28 27 27 27 27 27 27 27 27 26 26 27 27 27 27 27 26 26 25 25 25 25 25 25 25 25 24 24 25 25 25 25 25
28 28 26 26 26 26 27 27 28 28 29 28 28 28 29 29 29 28 29 28 27 27 28 28 28 28 28 27 27 27 27 27 26 26 26 26 26 26 26 27 27 27 26
27 28 28 28 28 28 29 29 29 28 29 29 28 29 30 30 30 30 30 30 29 28 28 28 28 29 29 28 28 28 27 27 28 27 27 27 27 27 27 27 28 28 27
29 30 29 28 28 29 29 30 30 29 29 29 29 29 29 30 30 30 30 30 30 29 29 28 28 29 29 29 28 28 28 28 28 28 28 29 29 29 28 28 28 28 27
30 29 29 29 29 30 29 28 28 28 29 29 29 30 29 29 30 30 30 30 30 30 30 30 29 30 30 29 29 29 29 29 29 29 30 30 29 30 29 28 28 28 28
31 30 30 30 30 29 29 29 29 29 28 29 29 30 30 30 30 30 30 30 30 30 30 31 31 31 31 30 30 29 28 29 29 29 30 30 30 30 30 29 29 29 29
31 30 30 30 30 29 29 29 29 30 29 29 30 31 30 30 30 30 30 30 31 31 32 32 31 31 32 31 30 30 29 28 29 29 29 29 29 30 29 30 30 30 30
30 29 29 29 29 30 29 28 29 29 29 29 29 30 30 30 30 31 31 31 31 31 32 32 31 31 32 32 32 30 30 29 29 29 29 29 29 29 30 30 30 30 30
28 28 28 28 29 29 29 29 28 28 29 29 29 28 28 29 30 30 30 30 31 31 31 31 31 30 31 31 31 31 31 31 30 30 30 30 29 29 29 30 30 30 30
27 27 27 27 28 28 28 28 28 28 29 28 28 28 27 27 28 29 29 29 30 30 30 31 32 31 31 31 31 31 31 30 30 30 30 30 30 30 29 29 30 30 31
27 27 27 26 26 26 26 26 26 27 27 27 27 27 27 27 27 27 28 28 29 30 30 31 32 32 33 33 32 32 32 31 31 31 31 30 31 30 30 30 30 31 31
26 25 25 25 25 24 24 25 25 25 25 25 25 25 25 26 27 28 28 28 29 30 30 30 31 31 32 32 32 32 31 31 31 31 31 31 31 31 31 30 30 30 30
24 24 24 24 24 24 24 24 23 24 24 23 23 24 25 26 26 26 27 28 28 28 28 29 30 31 31 31 31 31 31 31 31 32 31 32 32 32 32 31 31 30 29
23 23 23 22 22 22 22 22 23 23 23 23 23 23 24 25 25 25 27 28 27 27 27 27 28 29 30 30 30 30 31 32 32 32 32 32 32 32 32 31 31 31 30
22 22 21 21 21 21 21 21 21 21 22 22 22 22 22 23 24 24 25 26 26 26 26 27 28 28 28 30 30 30 31 32 32 32 33 32 32 32 32 32 31 31 30
20 20 19 19 19 20 19 19 20 20 20 21 21 21 21 22 23 23 23 24 25 25 26 26 26 27 27 28 28 29 29 29 30 31 31 31 31 31 31 31 31 31 30
18 18 18 18 18 18 18 18 18 18 19 20 21 21 21 21 21 21 22 22 23 24 25 25 26 26 26 27 27 27 28 28 28 28 29 29 30 30 31 31 31 31 31
17 17 17 17 17 16 15 16 16 17 18 18 18 19 19 19 19 19 20 20 21 22 23 24 25 25 26 26 27 27 27 27 27 28 29 30 30 30 31 31 31 31 31
16 15 16 16 16 15 14 15 16 16 17 17 17 18 18 18 19 19 18 19 19 20 22 23 24 25 26 26 26 27 27 27 27 28 28 29 29 30 30 30 31 31 31
15 15 15 15 15 14 14 15 15 15 16 16 17 17 17 17 17 18 18 18 18 19 20 21 23 24 25 25 25 25 26 26 26 27 28 28 29 29 29 29 29 30 30
14 14 13 13 13 13 14 14 14 15 15 16 16 16 17 17 17 16 16 16 16 16 17 18 20 21 23 23 24 25 25 25 25 25 26 28 28 28 29 29 29 29 29
14 13 13 12 12 13 13 13 14 14 15 15 15 15 16 15 15 15 15 14 14 14 14 15 17 18 19 20 22 24 24 25 26 26 26 26 27 27 27 27 27 27 27
Wind_Direction
278 276 275 275 276 276 277 276 276 276 275 274 274 274 274 272 272 272 272 268 265 261 261 262 260 260 259 259 258 257 256 255 253 253 254 254 253 252 252 251 251 250 249
279 277 276 275 275 276 276 274 274 273 274 274 274 272 273 272 273 273 271 270 266 263 260 260 262 260 258 259 259 258 255 253 252 253 254 255 252 252 253 251 251 251 251
283 280 280 279 275 274 275 275 273 272 272 272 272 271 271 272 273 271 268 268 265 263 261 260 261 259 258 257 258 256 254 252 252 253 253 253 253 254 253 252 252 251 252
285 281 280 281 277 275 273 273 275 273 272 272 271 271 270 270 272 270 268 268 263 262 261 259 260 260 257 254 255 255 254 252 252 253 252 251 252 252 252 252 253 252 252
284 281 280 280 279 277 275 275 275 274 272 271 270 270 271 270 270 269 268 268 264 261 260 260 259 258 256 254 253 252 253 253 254 254 253 252 252 252 252 253 254 252 252
284 282 282 280 279 278 278 276 275 274 272 271 270 270 271 270 268 267 266 266 264 260 258 258 257 256 254 254 254 252 252 254 254 253 253 252 252 253 252 252 253 252 252
286 283 284 283 280 279 278 277 274 274 274 272 271 270 270 268 268 267 266 265 264 260 257 256 255 254 253 253 254 253 252 253 253 253 253 252 253 253 253 251 252 251 251
287 284 283 284 282 280 279 276 274 273 274 273 272 271 269 268 268 267 266 265 264 262 258 256 254 253 252 252 253 253 253 253 253 253 254 254 253 253 254 253 251 250 250
287 284 282 283 284 281 279 278 275 274 274 274 273 271 270 267 266 266 267 265 263 261 259 255 253 252 251 251 250 250 251 253 254 253 254 253 253 253 253 252 250 248 250
287 286 283 283 284 283 281 279 277 276 275 275 274 272 271 269 266 265 265 264 263 260 259 256 252 250 250 250 250 250 252 253 253 253 253 254 253 253 253 250 249 249 250
288 286 284 283 283 283 281 279 278 276 275 274 273 273 273 271 268 267 264 263 262 258 257 256 253 251 251 250 249 249 250 252 254 252 253 253 251 250 250 251 249 249 250
289 287 286 285 285 283 280 278 278 276 275 275 275 273 272 270 269 268 265 263 261 258 256 255 254 252 251 250 249 247 249 251 252 253 252 250 249 248 249 250 248 248 248
290 289 288 286 286 283 280 277 275 274 275 276 275 274 273 271 268 267 266 264 261 258 256 255 254 253 251 250 248 248 249 249 251 252 250 249 249 249 247 249 250 248 247
292 291 291 289 287 285 282 279 276 275 276 276 276 275 274 272 270 267 265 264 261 259 257 255 253 252 250 250 249 248 248 249 249 250 249 248 249 248 247 248 248 247 246
292 292 291 290 290 286 283 282 279 277 277 278 277 275 274 272 271 269 268 266 263 260 259 257 256 255 252 251 250 247 247 249 249 249 248 247 247 247 245 247 247 246 245
291 291 290 290 290 288 286 284 282 281 279 278 278 276 275 274 272 270 268 266 265 262 259 256 255 254 254 253 252 249 248 248 248 248 247 245 245 245 244 245 246 245 245
293 293 293 293 292 289 288 287 284 281 280 278 278 277 277 276 273 271 270 268 266 263 260 256 253 252 252 252 251 250 249 248 248 249 247 244 244 243 243 244 245 245 245
293 293 292 293 295 294 291 288 285 283 281 280 279 279 278 278 274 272 272 269 266 263 258 254 251 252 251 250 249 249 249 249 248 248 246 244 243 243 242 243 244 243 245
294 297 295 294 295 295 293 290 288 285 283 281 279 278 278 278 276 274 273 269 266 261 257 254 251 252 252 250 249 249 249 248 248 247 247 246 246 244 244 242 242 243 244
297 299 299 297 297 297 296 292 287 286 285 282 279 279 279 279 278 277 273 270 266 261 257 253 250 251 250 250 249 249 248 248 246 246 245 246 246 244 242 242 243 244 245
299 300 303 301 299 299 297 295 292 290 288 285 283 283 280 282 281 278 274 271 266 261 257 253 250 250 250 249 248 249 248 249 247 246 245 246 246 246 244 243 244 245 246
304 303 302 304 305 303 301 298 296 295 292 289 286 285 284 284 284 281 277 273 268 262 257 254 251 250 249 248 249 249 247 246 246 246 246 246 246 246 246 246 246 247 246
308 306 307 306 305 306 305 301 299 296 295 293 290 288 288 286 285 285 281 276 271 265 259 257 254 252 251 249 249 248 248 248 246 246 246 245 245 246 247 247 247 246 247
315 314 312 311 309 308 308 307 305 303 301 298 296 294 291 289 290 287 282 277 274 270 264 260 257 254 251 249 247 246 247 248 247 247 246 246 246 246 246 247 247 246 247
323 321 318 316 316 314 312 312 309 307 306 303 302 300 296 293 292 291 286 281 277 275 268 263 261 256 252 249 245 245 246 246 247 247 247 247 246 245 245 246 247 247 246
333 329 325 323 324 322 320 317 317 315 311 307 304 303 300 297 295 295 293 287 281 280 275 270 266 259 253 251 249 247 247 247 248 246 246 245 245 244 243 243 243 244 244
Height
5857 5856 5855 5854 5853 5852 5851 5850 5849 5848 5847 5846 5846 5845 5844 5843 5843 5842 5841 5841 5842 5842 5842 5843 5843 5844 5844 5845 5845 5846 5846 5846 5847 5848 5849 5850 5851 5851 5852 5853 5854 5855 5856
5852 5850 5849 5848 5847 5846 5845 5844 5844 5842 5842 5841 5840 5839 5838 5837 5837 5837 5836 5836 5836 5836 5836 5837 5838 5838 5839 5840 5840 5841 5841 5842 5843 5843 5844 5845 5846 5847 5848 5849 5850 5851 5852
5845 5844 5843 5842 5841 5840 5839 5838 5837 5837 5836 5835 5834 5833 5833 5832 5831 5831 5831 5830 5830 5830 5830 5830 5831 5832 5833 5834 5835 5836 5836 5837 5838 5838 5839 5840 5841 5842 5843 5844 5845 5846 5847
5839 5838 5837 5836 5834 5833 5833 5832 5831 5830 5830 5829 5828 5827 5826 5826 5825 5824 5824 5824 5823 5824 5824 5824 5825 5826 5826 5828 5829 5830 5831 5831 5832 5833 5834 5835 5836 5837 5838 5839 5839 5840 5841
5832 5831 5830 5829 5828 5826 5826 5825 5824 5823 5822 5822 5821 5820 5819 5819 5818 5817 5817 5817 5817 5817 5818 5818 5818 5819 5820 5821 5822 5823 5824 5825 5826 5827 5828 5829 5830 5831 5832 5833 5834 5835 5836
5827 5825 5823 5822 5821 5819 5818 5817 5817 5815 5815 5814 5814 5813 5812 5812 5811 5810 5810 5809 5810 5810 5811 5811 5812 5813 5813 5814 5815 5816 5818 5819 5820 5821 5822 5823 5824 5825 5826 5827 5828 5829 5830
5820 5818 5816 5815 5813 5812 5811 5809 5808 5807 5807 5806 5806 5805 5805 5804 5803 5803 5802 5802 5802 5803 5803 5804 5805 5806 5806 5807 5808 5809 5811 5812 5813 5814 5815 5816 5817 5818 5819 5820 5821 5822 5823
5813 5811 5809 5807 5805 5804 5802 5801 5800 5799 5798 5797 5797 5796 5796 5796 5795 5795 5794 5794 5795 5795 5795 5796 5797 5798 5799 5800 5801 5802 5803 5805 5806 5807 5808 5810 5811 5812 5813 5814 5815 5816 5817
5804 5803 5801 5799 5797 5796 5794 5793 5792 5791 5790 5789 5788 5788 5787 5787 5787 5787 5786 5786 5786 5787 5787 5788 5789 5791 5792 5793 5794 5795 5796 5797 5799 5800 5801 5802 5803 5805 5806 5807 5808 5809 5811
5797 5794 5792 5790 5789 5787 5786 5785 5783 5782 5781 5780 5779 5778 5778 5778 5778 5779 5778 5778 5778 5778 5779 5780 5782 5783 5784 5785 5786 5787 5788 5790 5791 5792 5793 5794 5795 5797 5798 5799 5801 5802 5803
5788 5785 5784 5782 5780 5779 5777 5776 5775 5774 5772 5772 5771 5770 5769 5768 5768 5769 5770 5770 5770 5770 5770 5772 5773 5774 5776 5777 5778 5779 5780 5782 5783 5784 5785 5786 5788 5789 5791 5792 5793 5794 5796
5780 5778 5776 5774 5772 5770 5769 5768 5767 5765 5764 5763 5762 5761 5760 5760 5759 5759 5760 5760 5761 5761 5762 5762 5764 5765 5767 5768 5770 5771 5772 5774 5775 5776 5777 5779 5780 5781 5783 5784 5785 5787 5788
5772 5770 5768 5766 5764 5762 5760 5759 5758 5757 5756 5754 5753 5752 5751 5750 5750 5750 5750 5751 5751 5752 5752 5753 5754 5756 5758 5760 5761 5763 5764 5765 5767 5768 5769 5771 5772 5773 5775 5776 5777 5779 5780
5765 5763 5760 5758 5756 5754 5752 5751 5749 5748 5747 5746 5745 5744 5742 5742 5741 5741 5741 5741 5742 5743 5743 5744 5745 5747 5749 5750 5752 5754 5755 5757 5758 5760 5761 5763 5764 5766 5767 5769 5770 5771 5773
5758 5755 5753 5751 5748 5746 5744 5743 5741 5740 5739 5737 5736 5735 5734 5733 5733 5732 5732 5732 5733 5734 5735 5735 5736 5737 5739 5741 5743 5744 5746 5748 5750 5751 5753 5754 5756 5758 5759 5761 5762 5764 5765
5750 5748 5746 5743 5741 5739 5737 5735 5733 5732 5730 5729 5728 5727 5726 5725 5724 5724 5723 5723 5724 5724 5725 5726 5727 5729 5730 5731 5733 5735 5737 5739 5741 5742 5744 5746 5748 5749 5751 5753 5755 5756 5757
5743 5741 5739 5736 5734 5731 5729 5727 5726 5724 5723 5721 5720 5719 5718 5717 5716 5715 5715 5714 5714 5715 5716 5717 5718 5719 5721 5722 5724 5726 5728 5730 5732 5733 5735 5737 5739 5741 5743 5745 5747 5748 5750
5737 5734 5732 5729 5727 5724 5722 5720 5719 5717 5715 5714 5713 5712 5711 5709 5708 5707 5707 5706 5706 5706 5707 5708 5709 5710 5712 5713 5715 5717 5719 5721 5723 5725 5726 5728 5730 5733 5735 5737 5739 5741 5742
5731 5728 5726 5723 5721 5718 5716 5714 5712 5710 5709 5707 5706 5705 5703 5702 5701 5700 5699 5698 5697 5698 5698 5699 5701 5702 5703 5705 5707 5708 5710 5712 5714 5716 5718 5720 5722 5724 5726 5728 5730 5733 5735
5725 5722 5720 5718 5715 5713 5710 5708 5706 5704 5702 5701 5699 5698 5697 5695 5694 5692 5691 5690 5690 5689 5690 5691 5692 5694 5695 5697 5698 5700 5702 5703 5705 5707 5709 5711 5713 5716 5718 5720 5722 5724 5726
5719 5718 5715 5712 5710 5707 5705 5702 5700 5698 5697 5695 5693 5692 5690 5688 5687 5685 5684 5683 5682 5682 5683 5683 5685 5686 5687 5688 5690 5692 5694 5696 5697 5699 5701 5704 5706 5708 5710 5712 5714 5716 5718
5715 5713 5710 5707 5705 5702 5700 5698 5695 5693 5692 5690 5688 5686 5684 5682 5680 5679 5677 5676 5675 5675 5676 5676 5677 5678 5679 5681 5682 5684 5686 5688 5690 5692 5693 5695 5698 5700 5702 5704 5706 5708 5710
5710 5708 5706 5703 5701 5698 5696 5693 5691 5689 5687 5684 5682 5681 5679 5677 5674 5673 5671 5670 5669 5668 5669 5669 5670 5670 5672 5673 5675 5676 5678 5680 5682 5684 5685 5688 5690 5692 5694 5696 5698 5699 5701
5707 5704 5702 5699 5697 5695 5692 5690 5687 5685 5682 5680 5678 5676 5673 5671 5669 5667 5666 5665 5663 5662 5662 5662 5663 5663 5664 5665 5666 5668 5670 5672 5674 5676 5678 5680 5682 5684 5686 5687 5689 5691 5693
5703 5701 5698 5696 5694 5691 5689 5686 5684 5681 5679 5676 5673 5671 5669 5667 5665 5663 5661 5660 5658 5657 5656 5656 5656 5656 5657 5658 5659 5661 5663 5665 5666 5668 5670 5672 5674 5676 5678 5680 5681 5683 5685
5701 5698 5696 5693 5691 5688 5686 5683 5681 5678 5675 5672 5670 5667 5665 5663 5660 5659 5657 5655 5654 5653 5652 5651 5651 5651 5651 5652 5653 5654 5656 5657 5659 5661 5663 5665 5666 5668 5670 5672 5674 5675 5677